Printer-friendly version

IAU Minor Planet Center

Minor Planet Center

MPEC 2009-M30 : 2009 MH1

The following Minor Planet Electronic Circular may be linked-to from your own Web pages, but must not otherwise be redistributed electronically.


Read MPEC 2009-M29


M.P.E.C. 2009-M30                                Issued 2009 June 23, 18:01 UT

     The Minor Planet Electronic Circulars contain information on unusual
         minor planets and routine data on comets.  They are published
   on behalf of Commission 20 of the International Astronomical Union by the
          Minor Planet Center, Smithsonian Astrophysical Observatory,
                          Cambridge, MA 02138, U.S.A.

             Prepared using the Tamkin Foundation Computer Network

                              MPC@CFA.HARVARD.EDU
          URL http://www.cfa.harvard.edu/iau/mpc.html  ISSN 1523-6714

                                   2009 MH1

Observations:
     K09M01H* C2009 06 22.39443 20 56 16.98 -16 18 09.2          21.0 V EM030G96
     K09M01H  C2009 06 22.40340 20 56 16.08 -16 18 20.0          21.2 V EM030G96
     K09M01H  C2009 06 22.41254 20 56 15.07 -16 18 31.5          20.7 V EM030G96
     K09M01H  C2009 06 22.42163 20 56 14.17 -16 18 42.6          20.9 V EM030G96
     K09M01H  C2009 06 22.44980 20 56 11.25 -16 19 18.2          21.2 V EM030G96
     K09M01H  C2009 06 22.45191 20 56 11.07 -16 19 20.8          21.1 V EM030G96
     K09M01H  C2009 06 22.45399 20 56 10.78 -16 19 24.0          21.4 V EM030G96
     K09M01H  C2009 06 22.45610 20 56 10.68 -16 19 25.6          21.4 V EM030G96
     K09M01H  C2009 06 23.44073 20 54 30.27 -16 40 13.6          20.8 V EM030G96
     K09M01H  C2009 06 23.44310 20 54 30.00 -16 40 16.6          21.4 V EM030G96
     K09M01H  C2009 06 23.44549 20 54 29.80 -16 40 20.2                 EM030G96
     K09M01H  C2009 06 23.44787 20 54 29.49 -16 40 23.8          22.0 V EM030G96

Observer details:
G96 Mt. Lemmon Survey.  Observer R. A. Kowalski.  Measurers E. C. Beshore,
    A. Boattini, G. J. Garradd, A. R. Gibbs, A. D. Grauer, R. E. Hill,
    R. A. Kowalski, S. M. Larson, R. H. McNaught.  1.5-m reflector + CCD.

Orbital elements:
2009 MH1                                                 Earth MOID = 0.3879 AU
Epoch 2009 June 18.0 TT = JDT 2455000.5                 MPC
M 177.66710              (2000.0)            P               Q
n   0.92346048     Peri.  358.73977     -0.34132703     -0.78097354
a   1.0443767      Node   111.00324     +0.86720972     -0.47629007
e   0.7312918      Incl.   34.07443     +0.36255090     +0.40401498
P   1.07           H   19.1           G   0.15
From 12 observations 2009 June 22-23.

Ephemeris:
2009 MH1                 a,e,i = 1.04, 0.73, 34                  q = 0.2806
Date    TT    R. A. (2000) Decl.     Delta      r     Elong.  Phase     V
2009 06 18    21 02.82   -14 51.9    0.956    1.808   132.9    24.3    21.4
2009 06 28    20 45.75   -18 23.0    0.865    1.806   147.4    17.6    21.0
2009 07 08    20 20.58   -22 39.5    0.800    1.798   163.4     9.3    20.5
2009 07 18    19 48.13   -27 09.1    0.769    1.783   173.9     3.5    20.1
2009 07 28    19 12.06   -31 04.5    0.776    1.761   158.8    12.0    20.5
2009 08 07    18 38.12   -33 54.1    0.816    1.733   142.2    21.0    20.9
2009 08 17    18 10.93   -35 39.7    0.881    1.697   127.2    28.4    21.2
2009 08 27    17 52.36   -36 42.1    0.962    1.654   114.0    33.9    21.5
2009 09 06    17 42.00   -37 22.3    1.047    1.603   102.5    37.9    21.7
2009 09 16    17 38.49   -37 53.3    1.131    1.544    92.4    40.6    21.9
2009 09 26    17 40.53   -38 21.6    1.207    1.477    83.4    42.4    22.0
2009 10 06    17 46.99   -38 49.7    1.269    1.401    75.2    43.6    22.0
2009 10 16    17 57.05   -39 17.8    1.315    1.315    67.7    44.6    22.0
2009 10 26    18 10.14   -39 44.8    1.339    1.217    60.8    45.5    21.9

Sonia Keys                   (C) Copyright 2009 MPC           M.P.E.C. 2009-M30

Read MPEC 2009-M29

Valid HTML 4.01!